• en France
  • Liste des pays
  • À 7 jours
  • Température de l'eau
  • Carte satellitaire
  • Carte météo
  • Widgets météo
  • user-avatar
    Se connecter

    Météo par heure à Leticia

    Ce jour, 21 Mai, Lundi

    Heure Température Précipitation Vent Pression Humidité
    00:00 +24°C° 0 mm 1 m/s 752 mmHg 99%
    01:00 +24°C° 0 mm 1 m/s 752 mmHg 99%
    02:00 +24°C° 0,4 mm 1 m/s 752 mmHg 99%
    03:00 +24°C° 0,4 mm 1 m/s 752 mmHg 99%
    04:00 +23°C° 0,4 mm 1 m/s 752 mmHg 99%
    05:00 +24°C° 0 mm 1 m/s 752 mmHg 98%
    06:00 +24°C° 0 mm 1 m/s 753 mmHg 98%
    07:00 +24°C° 0 mm 1 m/s 753 mmHg 97%
    08:00 +26°C° 0 mm 1 m/s 753 mmHg 86%
    09:00 +28°C° 0 mm 1 m/s 753 mmHg 75%
    10:00 +30°C° 0 mm 1 m/s 754 mmHg 65%
    11:00 +31°C° 0,2 mm 1 m/s 753 mmHg 64%
    12:00 +32°C° 0,2 mm 1 m/s 752 mmHg 64%
    13:00 +32°C° 0,2 mm 1 m/s 751 mmHg 64%
    14:00 +30°C° 0,4 mm 0 m/s 751 mmHg 68%
    15:00 +29°C° 0,4 mm 0 m/s 750 mmHg 72%
    16:00 +29°C° 0,4 mm 0 m/s 750 mmHg 75%
    17:00 +27°C° 0,1 mm 0 m/s 750 mmHg 80%
    18:00 +26°C° 0,1 mm 0 m/s 750 mmHg 84%
    19:00 +24°C° 0,1 mm 0 m/s 750 mmHg 88%
    20:00 +24°C° 0 mm 0 m/s 751 mmHg 90%
    21:00 +24°C° 0 mm 0 m/s 751 mmHg 91%
    22:00 +23°C° 0 mm 0 m/s 752 mmHg 93%
    23:00 +23°C° 0 mm 0 m/s 752 mmHg 94%

    Demain, 22 Mai, Mardi

    Heure Température Précipitation Vent Pression Humidité
    00:00 +23°C° 0 mm 0 m/s 752 mmHg 95%
    01:00 +23°C° 0 mm 0 m/s 752 mmHg 96%
    02:00 +22°C° 0,2 mm 0 m/s 751 mmHg 97%
    03:00 +22°C° 0,2 mm 0 m/s 751 mmHg 97%
    04:00 +22°C° 0,2 mm 0 m/s 751 mmHg 98%
    05:00 +23°C° 0 mm 0 m/s 752 mmHg 96%
    06:00 +23°C° 0 mm 0 m/s 752 mmHg 94%
    07:00 +24°C° 0 mm 0 m/s 753 mmHg 92%
    08:00 +26°C° 0,7 mm 0 m/s 753 mmHg 86%
    09:00 +29°C° 0,7 mm 1 m/s 753 mmHg 79%
    10:00 +31°C° 0,7 mm 1 m/s 753 mmHg 73%
    11:00 +32°C° 0,6 mm 1 m/s 753 mmHg 70%
    12:00 +33°C° 0,6 mm 1 m/s 752 mmHg 66%
    13:00 +34°C° 0,6 mm 1 m/s 751 mmHg 62%
    14:00 +32°C° 0,9 mm 1 m/s 750 mmHg 71%
    15:00 +31°C° 0,9 mm 1 m/s 750 mmHg 79%
    16:00 +28°C° 0,9 mm 0 m/s 749 mmHg 88%
    17:00 +26°C° 0,2 mm 0 m/s 750 mmHg 90%
    18:00 +25°C° 0,2 mm 0 m/s 750 mmHg 93%
    19:00 +26°C° 0,2 mm 1 m/s 750 mmHg 95%
    20:00 +24°C° 0,1 mm 0 m/s 751 mmHg 96%
    21:00 +24°C° 0,1 mm 0 m/s 752 mmHg 96%
    22:00 +23°C° 0,1 mm 0 m/s 752 mmHg 97%
    23:00 +23°C° 1,5 mm 0 m/s 752 mmHg 97%

    Après-demain, 23 Mai, Mercredi

    Heure Température Précipitation Vent Pression Humidité
    00:00 +23°C° 1,5 mm 0 m/s 752 mmHg 98%
    01:00 +22°C° 1,5 mm 0 m/s 752 mmHg 99%
    02:00 +22°C° 0,5 mm 0 m/s 752 mmHg 99%
    03:00 +22°C° 0,5 mm 0 m/s 752 mmHg 99%
    04:00 +22°C° 0,5 mm 0 m/s 752 mmHg 99%
    05:00 +23°C° 0,7 mm 0 m/s 752 mmHg 98%
    06:00 +23°C° 0,7 mm 0 m/s 753 mmHg 98%
    07:00 +23°C° 0,7 mm 0 m/s 753 mmHg 97%
    08:00 +26°C° 1,3 mm 1 m/s 753 mmHg 96%
    09:00 +28°C° 1,3 mm 1 m/s 754 mmHg 94%
    10:00 +29°C° 1,3 mm 1 m/s 754 mmHg 92%
    11:00 +29°C° 1 mm 1 m/s 753 mmHg 89%
    12:00 +30°C° 1 mm 1 m/s 753 mmHg 87%
    13:00 +30°C° 1 mm 1 m/s 752 mmHg 84%
    14:00 +30°C° 0,8 mm 1 m/s 752 mmHg 85%
    15:00 +30°C° 0,8 mm 1 m/s 751 mmHg 86%
    16:00 +30°C° 0,8 mm 1 m/s 751 mmHg 87%
    17:00 +28°C° 0,9 mm 1 m/s 751 mmHg 90%
    18:00 +27°C° 0,9 mm 1 m/s 751 mmHg 94%
    19:00 +24°C° 0,9 mm 0 m/s 752 mmHg 98%
    20:00 +24°C° 0,1 mm 0 m/s 752 mmHg 98%
    21:00 +23°C° 0,1 mm 0 m/s 753 mmHg 98%
    22:00 +23°C° 0,1 mm 0 m/s 754 mmHg 98%
    23:00 +23°C° 0,4 mm 0 m/s 753 mmHg 98%

    24 Mai, Jeudi

    Heure Température Précipitation Vent Pression Humidité
    00:00 +23°C° 0,4 mm 0 m/s 753 mmHg 98%
    01:00 +23°C° 0,4 mm 0 m/s 753 mmHg 98%
    02:00 +23°C° 0,7 mm 0 m/s 753 mmHg 98%
    03:00 +22°C° 0,7 mm 0 m/s 753 mmHg 98%
    04:00 +22°C° 0,7 mm 0 m/s 753 mmHg 99%
    05:00 +23°C° 0,2 mm 0 m/s 753 mmHg 98%
    06:00 +23°C° 0,2 mm 0 m/s 754 mmHg 98%
    07:00 +23°C° 0,2 mm 0 m/s 754 mmHg 97%
    08:00 +26°C° 1 mm 1 m/s 754 mmHg 96%
    09:00 +28°C° 1 mm 1 m/s 754 mmHg 94%
    10:00 +29°C° 1 mm 1 m/s 754 mmHg 92%
    11:00 +30°C° 0,5 mm 1 m/s 753 mmHg 82%
    12:00 +32°C° 0,5 mm 1 m/s 753 mmHg 72%
    13:00 +33°C° 0,5 mm 1 m/s 752 mmHg 62%
    14:00 +32°C° 1,1 mm 1 m/s 751 mmHg 72%
    15:00 +30°C° 1,1 mm 1 m/s 751 mmHg 82%
    16:00 +29°C° 1,1 mm 1 m/s 751 mmHg 92%
    17:00 +28°C° 0,4 mm 1 m/s 751 mmHg 94%
    18:00 +27°C° 0,4 mm 1 m/s 752 mmHg 96%
    19:00 +24°C° 0,4 mm 0 m/s 752 mmHg 98%
    20:00 +26°C° 0,8 mm 1 m/s 753 mmHg 98%
    21:00 +26°C° 0,8 mm 1 m/s 753 mmHg 98%
    22:00 +25°C° 0,8 mm 1 m/s 754 mmHg 98%
    23:00 +25°C° 0,2 mm 1 m/s 753 mmHg 99%

    25 Mai, Vendredi

    Heure Température Précipitation Vent Pression Humidité
    00:00 +25°C° 0,2 mm 1 m/s 753 mmHg 99%
    01:00 +25°C° 0,2 mm 1 m/s 753 mmHg 99%
    02:00 +24°C° 0 mm 1 m/s 752 mmHg 99%
    03:00 +22°C° 0 mm 0 m/s 752 mmHg 99%
    04:00 +22°C° 0 mm 0 m/s 752 mmHg 99%
    05:00 +22°C° 0 mm 0 m/s 753 mmHg 98%
    06:00 +23°C° 0 mm 0 m/s 753 mmHg 97%
    07:00 +25°C° 0 mm 1 m/s 754 mmHg 97%
    08:00 +26°C° 0,5 mm 1 m/s 754 mmHg 94%
    09:00 +28°C° 0,5 mm 1 m/s 754 mmHg 91%
    10:00 +29°C° 0,5 mm 1 m/s 754 mmHg 89%
    11:00 +29°C° 0,7 mm 1 m/s 753 mmHg 86%
    12:00 +30°C° 0,7 mm 1 m/s 752 mmHg 83%
    13:00 +30°C° 0,7 mm 1 m/s 751 mmHg 81%
    14:00 +30°C° 0,8 mm 1 m/s 751 mmHg 85%
    15:00 +29°C° 0,8 mm 1 m/s 751 mmHg 89%
    16:00 +27°C° 0,8 mm 0 m/s 750 mmHg 93%
    17:00 +26°C° 1,5 mm 0 m/s 751 mmHg 95%
    18:00 +25°C° 1,5 mm 0 m/s 751 mmHg 96%
    19:00 +23°C° 1,5 mm 0 m/s 752 mmHg 97%
    20:00 +23°C° 0 mm 0 m/s 752 mmHg 97%
    21:00 +23°C° 0 mm 0 m/s 753 mmHg 97%
    22:00 +23°C° 0 mm 0 m/s 753 mmHg 97%
    23:00 +23°C° 0,1 mm 0 m/s 753 mmHg 98%

    26 Mai, Samedi

    Heure Température Précipitation Vent Pression Humidité
    00:00 +23°C° 0,1 mm 0 m/s 752 mmHg 98%
    01:00 +22°C° 0,1 mm 0 m/s 752 mmHg 98%
    02:00 +22°C° 0,2 mm 0 m/s 752 mmHg 99%
    03:00 +22°C° 0,2 mm 0 m/s 752 mmHg 99%
    04:00 +22°C° 0,2 mm 0 m/s 752 mmHg 99%
    05:00 +22°C° 0,1 mm 0 m/s 752 mmHg 98%
    06:00 +23°C° 0,1 mm 0 m/s 753 mmHg 98%
    07:00 +23°C° 0,1 mm 0 m/s 753 mmHg 97%
    08:00 +24°C° 0,7 mm 0 m/s 753 mmHg 97%
    09:00 +24°C° 0,7 mm 0 m/s 753 mmHg 96%
    10:00 +24°C° 0,7 mm 0 m/s 753 mmHg 96%
    11:00 +25°C° 0,7 mm 0 m/s 752 mmHg 94%
    12:00 +25°C° 0,7 mm 0 m/s 752 mmHg 93%
    13:00 +25°C° 0,7 mm 0 m/s 751 mmHg 92%
    14:00 +26°C° 1 mm 0 m/s 751 mmHg 89%
    15:00 +27°C° 1 mm 0 m/s 750 mmHg 85%
    16:00 +28°C° 1 mm 0 m/s 750 mmHg 82%
    17:00 +26°C° 0,5 mm 0 m/s 750 mmHg 87%
    18:00 +25°C° 0,5 mm 0 m/s 751 mmHg 91%
    19:00 +23°C° 0,5 mm 0 m/s 751 mmHg 96%
    20:00 +23°C° 0,3 mm 0 m/s 752 mmHg 97%
    21:00 +23°C° 0,3 mm 0 m/s 752 mmHg 97%
    22:00 +23°C° 0,3 mm 0 m/s 752 mmHg 97%
    23:00 +23°C° 0,1 mm 0 m/s 752 mmHg 98%
    Voir plus